Orbital Elements at Epoch 2459200.5 (2020-Dec-17.0) TDB
Reference: JPL 7 (heliocentric ecliptic J2000)
Element | Value | Uncertainty (1-sigma) | Units |
e | .05658723464105927 | 0.00017892 | |
a | 43.15666838988736 | 0.012049 | au |
q | 40.71455186938241 | 0.018936 | au |
i | 4.905908359205329 | 0.00010654 | deg |
node | 103.4260823827166 | 0.00406 | deg |
peri | 36.92502267277285 | 0.13973 | deg |
M | 232.6250297040249 | 0.13837 | deg |
tp | 2495840.198202754531 (2121-Apr-11.69820275) | 27.658 | TDB |
period | 103554.8139665272 283.52 | 43.369 0.1187 | d yr |
n | .003476419745356942 | 1.4559e-06 | deg/d |
Q | 45.5987849103923 | 0.012731 | au |
|
| | Orbit Determination Parameters
Additional Information
|